[[{"header":{"parameterUnit":"m.s-1","parameterCategory":1,"la1":30.2991,"la2":30.254,"lo1":-89.0895,"lo2":-89.0444,"dy":0.0017,"dx":0.0017,"nx":28,"ny":28,"refTime":"2023-07-21T21:00:00:Z","depth":0,"parameterNumber":2,"parameterNumberName":"U-component_of_WINDS"},"data":[0,0,0,0,0,0,0,0,0,0,0,0,0,0,0,0,0,0,0,0,0,0,0,0,0,0,0,0,0,0,0,0,0,0,0,0,0,0,0,0,0,0,0,0,0,0,0,0,0,0,0,0,0,0,0,0,0,0,4.9174,4.9175,0,4.926,4.9261,4.9261,4.9187,4.9184,4.9181,4.9178,4.9263,4.9268,4.9273,0,0,0,0,0,0,0,0,0,0,0,0,0,4.8942,4.8946,4.9174,4.9175,4.9176,4.9259,4.9261,4.9262,4.9187,4.9184,4.918,4.9177,4.9261,4.9267,4.9273,0,0,0,0,0,0,0,0,0,0,0,0,0,4.9036,4.8948,4.9174,4.9149,4.9148,4.9259,4.9261,4.9262,4.9188,4.9184,4.9179,4.9175,4.9259,4.9266,4.9274,4.9413,0,0,4.9297,4.9301,0,0,0,0,0,0,0,0,4.9031,4.9045,4.9152,4.9151,4.915,4.9208,4.921,4.9313,4.9189,4.9173,4.9178,4.9173,4.9248,4.9256,4.9282,4.9417,4.9421,4.9298,4.9303,4.9306,4.9308,0,0,0,0,0,0,0,4.9025,4.9041,4.9208,4.9153,4.9152,4.9132,4.9141,4.9229,4.9235,4.9174,4.9169,4.918,4.9246,4.9275,4.9284,4.9422,4.9298,4.9305,4.9309,4.9312,4.967,4.9675,0,0,0,0,0,0,4.9021,4.9036,4.9205,4.921,4.9078,4.914,4.915,4.9194,4.9234,4.9236,4.9184,4.9176,4.9264,4.9275,4.9286,4.9448,4.9306,4.9313,4.9317,4.9665,4.9671,4.9677,0,0,0,0,0,0,4.9017,4.9037,4.9202,4.9122,4.9141,4.9149,4.9199,4.9198,4.9226,4.9241,4.9242,4.9212,4.9261,4.9276,4.9381,4.945,4.9317,4.9324,4.966,4.9667,4.9674,4.9775,0,0,0,0,0,0,4.901,4.9036,4.909,4.9124,4.9146,4.9297,4.9204,4.9203,4.924,4.9231,4.9268,4.927,4.9259,4.937,4.9389,4.9458,4.9329,4.9653,4.9663,4.9672,4.9766,4.9785,4.9802,0,0,0,0,0,4.9002,4.9116,4.9093,4.9114,4.9214,4.9301,4.9313,4.9299,4.9246,4.9299,4.9308,4.9269,4.944,4.9382,4.9402,4.9475,4.9649,4.966,4.9671,4.9758,4.9781,4.9801,0,0,0,0,0,0,4.9089,4.912,4.9095,4.9223,4.926,4.9288,4.9355,4.9325,4.9378,4.9367,4.9346,4.9355,4.9465,4.9481,4.9415,4.9609,4.9536,4.9551,4.9595,4.9617,4.9635,4.9627,4.9336,0,0,0,0,0,4.9124,4.9193,4.9215,4.9326,4.9346,4.9348,4.9385,4.9371,4.9408,4.9423,4.944,4.9476,4.9538,4.9579,4.9637,4.9769,4.9773,4.9828,4.9846,4.9861,4.9874,4.994,4.9964,4.9713,4.9713,4.9713,0,0,4.9195,4.922,4.9265,4.9344,4.9371,4.9441,4.9361,4.944,4.9491,4.9434,4.9534,4.9548,4.9587,4.9705,4.9758,4.9722,4.9945,4.9875,4.9887,4.9892,4.9954,4.9978,4.9999,4.972,4.9719,4.9718,0,0,4.9359,4.9387,4.948,4.9509,4.9551,4.9551,4.9573,4.9606,4.9613,4.9713,4.9671,4.9731,4.9839,4.9867,4.9896,5.0069,5.0033,5.0089,5.0182,5.0247,5.0267,5.0284,5.0342,5.0363,5.0102,5.0103,5.0103,0,4.9442,4.9548,4.9532,4.9613,4.9647,4.96,4.9692,4.972,4.9779,4.9803,4.9762,4.9894,4.9917,5.0039,5.0081,5.0107,5.0129,5.0083,5.0265,5.0283,5.0298,5.0353,5.0376,5.0109,5.0108,5.0107,5.0107,0,4.9645,4.9719,4.9789,4.9846,4.9889,4.9975,4.997,5.0015,4.9997,5.0001,5.0101,5.0128,5.0188,5.0217,5.02,5.0336,5.0311,5.0269,5.0193,5.0329,5.038,5.0401,5.0118,5.0115,5.0114,5.0112,0,0,4.9866,4.9913,4.9938,4.9962,5.0004,5.006,5.0143,5.0202,5.0239,5.0281,5.0348,5.044,5.0399,5.0432,5.0418,5.0475,5.0606,5.0425,5.0425,5.0454,5.0752,5.0781,5.0806,5.0583,5.0587,5.059,5.0747,0,5.0029,5.0174,5.0161,5.0298,5.0363,5.0319,5.039,5.0423,5.0428,5.0483,5.0489,5.0553,5.0497,5.0515,5.0571,5.0578,5.0664,5.0567,5.0642,5.0644,5.063,5.0833,5.0865,5.1011,5.0767,5.0771,5.0773,0,5.0239,5.0287,5.043,5.0459,5.0486,5.0551,5.0602,5.0657,5.0692,5.0691,5.0727,5.0702,5.0783,5.0709,5.0818,5.0752,5.0782,5.079,5.0795,5.0798,5.0715,5.0838,5.1058,5.1079,5.0805,5.0803,5.08,0,5.038,5.0482,5.0579,5.0601,5.0639,5.0685,5.0702,5.0733,5.0768,5.0813,5.0835,5.089,5.0919,5.096,5.095,5.0898,5.106,5.0986,5.1059,5.1059,5.1093,5.109,5.1317,5.1119,5.1118,5.1118,5.1117,0,5.0561,5.0649,5.0642,5.0702,5.0798,5.0783,5.0878,5.0889,5.0917,5.0976,5.0942,5.0998,5.0982,5.1037,5.103,5.1119,5.1133,5.1133,5.1129,5.1134,5.1133,5.115,5.1138,5.1124,5.1122,5.1121,5.112,0,5.0735,5.0734,5.0837,5.0863,5.0872,5.0942,5.0963,5.1018,5.1021,5.1096,5.1113,5.1117,5.1179,5.1174,5.1244,5.1239,5.1348,5.1334,5.1336,5.1331,5.1403,5.1395,5.1646,5.1676,5.1462,5.1465,5.1466,0,5.0848,5.0915,5.0948,5.0986,5.1006,5.1068,5.1103,5.109,5.1128,5.1172,5.122,5.128,5.1326,5.1428,5.1436,5.1488,5.1473,5.1557,5.148,5.1482,5.1469,5.1464,5.1468,5.1571,5.1574,5.1576,5.1577,0,5.1049,5.1045,5.1098,5.1151,5.1195,5.1236,5.1273,5.1306,5.1296,5.134,5.1404,5.144,5.1511,5.1569,5.1619,5.1634,5.1603,5.1602,5.1621,5.1624,5.1621,5.1619,5.1373,5.1595,5.1593,5.1592,5.1591,5.159,5.1193,5.1248,5.128,5.134,5.1366,5.1401,5.1453,5.1462,5.1515,5.1572,5.1561,5.1631,5.1661,5.1725,5.1746,5.1799,5.1768,5.1797,5.1803,5.181,5.1816,5.1616,5.1809,5.1808,5.1808,5.1807,5.1807,0,5.1388,5.1406,5.1461,5.1514,5.156,5.1529,5.1568,5.1608,5.167,5.1702,5.1748,5.1819,5.1875,5.1887,5.1939,5.1979,5.1966,5.1993,5.1988,5.1991,5.1843,5.1819,5.2003,5.2003,5.2003,5.2003,5.2003,5.2003,5.1494,5.1585,5.1585,5.1687,5.1704,5.1773,5.1798,5.1829,5.1853,5.1934,5.1981,5.1988,5.2011,5.2065,5.2113,5.2115,5.2134,5.2166,5.2162,5.2022,5.2002,5.1984,5.1961,5.2172,5.2172,5.2306,5.2307,5.2308]},{"header":{"parameterUnit":"m.s-1","parameterCategory":1,"la1":30.2991,"la2":30.254,"lo1":-89.0895,"lo2":-89.0444,"dy":0.0017,"dx":0.0017,"nx":28,"ny":28,"refTime":"2023-07-21T21:00:00:Z","depth":0,"parameterNumber":3,"parameterNumberName":"V-component_of_WINDS"},"data":[0,0,0,0,0,0,0,0,0,0,0,0,0,0,0,0,0,0,0,0,0,0,0,0,0,0,0,0,0,0,0,0,0,0,0,0,0,0,0,0,0,0,0,0,0,0,0,0,0,0,0,0,0,0,0,0,0,0,5.192,5.192,0,5.1991,5.1992,5.1993,5.1942,5.194,5.1938,5.1936,5.2005,5.2008,5.2012,0,0,0,0,0,0,0,0,0,0,0,0,0,5.1733,5.1737,5.192,5.1921,5.1921,5.1991,5.1992,5.1993,5.1943,5.194,5.1937,5.1935,5.2003,5.2008,5.2013,0,0,0,0,0,0,0,0,0,0,0,0,0,5.1811,5.1738,5.1919,5.1905,5.1904,5.1991,5.1992,5.1993,5.1943,5.194,5.1936,5.1933,5.2002,5.2007,5.2013,5.2117,0,0,5.2031,5.2034,0,0,0,0,0,0,0,0,5.1806,5.1817,5.1906,5.1906,5.1906,5.1954,5.1952,5.2035,5.1944,5.1928,5.1936,5.1932,5.199,5.1997,5.2018,5.212,5.2123,5.2032,5.2035,5.2038,5.2039,0,0,0,0,0,0,0,5.1801,5.1814,5.1948,5.1907,5.1907,5.1893,5.19,5.1967,5.1977,5.1929,5.1926,5.1935,5.1989,5.2012,5.2019,5.2124,5.2032,5.2037,5.204,5.2043,5.2312,5.2315,0,0,0,0,0,0,5.1798,5.181,5.1945,5.195,5.1847,5.1899,5.1907,5.1942,5.1976,5.1978,5.1938,5.1933,5.2004,5.2012,5.2021,5.2143,5.2038,5.2043,5.2047,5.2308,5.2313,5.2316,0,0,0,0,0,0,5.1794,5.181,5.1943,5.1879,5.1895,5.1906,5.1945,5.1945,5.1968,5.1983,5.1984,5.196,5.2001,5.2013,5.2093,5.2144,5.2046,5.2051,5.2304,5.231,5.2315,5.2388,0,0,0,0,0,0,5.1789,5.1809,5.185,5.188,5.1898,5.2016,5.1949,5.1949,5.1979,5.1972,5.2004,5.2005,5.2,5.2084,5.2099,5.2151,5.2056,5.2299,5.2306,5.2313,5.2381,5.2395,5.2408,0,0,0,0,0,5.1782,5.1868,5.1853,5.1869,5.195,5.2019,5.2029,5.2022,5.1983,5.2023,5.2032,5.2004,5.2137,5.2093,5.2109,5.2163,5.2296,5.2304,5.2312,5.2375,5.2392,5.2407,0,0,0,0,0,0,5.1843,5.1872,5.1855,5.1953,5.1984,5.201,5.2061,5.2041,5.2082,5.2074,5.2062,5.2069,5.2153,5.2166,5.2117,5.2264,5.221,5.2222,5.2252,5.2269,5.2282,5.2276,5.2061,0,0,0,0,0,5.1868,5.1922,5.1944,5.2028,5.2045,5.205,5.208,5.2071,5.2102,5.2114,5.213,5.2159,5.2207,5.2239,5.2284,5.2383,5.2387,5.2428,5.2441,5.2452,5.2461,5.2512,5.253,5.2343,5.2343,5.2343,0,0,5.1919,5.1942,5.1977,5.2041,5.2064,5.2119,5.2061,5.2123,5.2162,5.2123,5.22,5.2212,5.2244,5.2333,5.2373,5.2347,5.2514,5.2462,5.247,5.2474,5.2522,5.254,5.2556,5.2349,5.2348,5.2347,0,0,5.2041,5.2065,5.2137,5.2161,5.2196,5.2199,5.2216,5.2245,5.2252,5.2329,5.23,5.2346,5.2429,5.2452,5.2475,5.2603,5.2578,5.2618,5.2687,5.2737,5.2751,5.2764,5.2808,5.2824,5.2628,5.2629,5.2629,0,5.21,5.2184,5.2176,5.2239,5.2266,5.2234,5.2305,5.2328,5.2376,5.2395,5.2365,5.2468,5.2487,5.258,5.2611,5.2632,5.2649,5.2615,5.275,5.2763,5.2775,5.2817,5.2833,5.2633,5.2632,5.2632,5.2632,0,5.2254,5.2312,5.2365,5.2413,5.2447,5.2514,5.2513,5.2548,5.2536,5.2542,5.2619,5.2641,5.2688,5.271,5.2699,5.2801,5.2783,5.2752,5.2697,5.2797,5.2836,5.2852,5.264,5.2638,5.2637,5.2635,0,0,5.2416,5.2458,5.2478,5.2498,5.2534,5.2577,5.2641,5.2689,5.2718,5.2752,5.2803,5.2874,5.2844,5.287,5.2861,5.2905,5.3002,5.2868,5.2868,5.2891,5.3114,5.3136,5.3155,5.2986,5.2989,5.2992,5.311,0,5.2539,5.2652,5.2646,5.2751,5.2803,5.2772,5.2827,5.2854,5.286,5.2903,5.2909,5.2959,5.2918,5.2932,5.2974,5.2982,5.3047,5.2973,5.3032,5.3034,5.3024,5.3176,5.32,5.3311,5.3126,5.3128,5.313,0,5.2697,5.2737,5.2848,5.2874,5.2895,5.2946,5.2987,5.303,5.3058,5.3059,5.3088,5.3071,5.3133,5.3077,5.3161,5.3111,5.3134,5.3141,5.3145,5.315,5.3088,5.3182,5.3347,5.3363,5.3154,5.3152,5.3151,0,5.2802,5.2883,5.2959,5.2978,5.3011,5.3046,5.3061,5.3087,5.3115,5.3151,5.3169,5.3211,5.3234,5.3267,5.3261,5.3221,5.3345,5.329,5.3346,5.3346,5.3373,5.3371,5.3542,5.339,5.339,5.339,5.339,0,5.2939,5.3008,5.3007,5.3054,5.3129,5.3119,5.3193,5.3204,5.3226,5.3273,5.3248,5.3292,5.3282,5.3325,5.3321,5.3389,5.34,5.3401,5.3399,5.3403,5.3403,5.3417,5.3409,5.3394,5.3393,5.3392,5.3392,0,5.3069,5.3072,5.3153,5.3177,5.3184,5.3238,5.3258,5.3301,5.3304,5.3363,5.3377,5.3382,5.3431,5.3428,5.3483,5.348,5.3564,5.3554,5.3555,5.3553,5.3608,5.3603,5.3793,5.3817,5.3652,5.3653,5.3655,0,5.3156,5.3208,5.3238,5.3268,5.3285,5.3334,5.3363,5.3355,5.3385,5.3421,5.3459,5.3506,5.3543,5.3622,5.3629,5.3671,5.366,5.3724,5.3666,5.3667,5.3659,5.3655,5.3659,5.3735,5.3737,5.3738,5.374,0,5.3309,5.3307,5.335,5.3394,5.3429,5.3463,5.3493,5.3519,5.3513,5.3549,5.3599,5.3628,5.3684,5.373,5.3769,5.3782,5.3759,5.3758,5.3773,5.3777,5.3775,5.3775,5.3585,5.3753,5.3752,5.3751,5.375,5.375,5.3419,5.3462,5.349,5.3538,5.3561,5.3589,5.363,5.3639,5.3681,5.3727,5.3719,5.3775,5.3799,5.385,5.3867,5.3909,5.3886,5.3908,5.3913,5.3918,5.3924,5.3769,5.3916,5.3915,5.3915,5.3915,5.3914,0,5.3568,5.3584,5.3629,5.3673,5.371,5.3687,5.3719,5.3751,5.3801,5.3827,5.3864,5.392,5.3964,5.3975,5.4016,5.4047,5.4038,5.4059,5.4055,5.4058,5.3943,5.3925,5.4065,5.4065,5.4065,5.4065,5.4065,5.4065,5.3651,5.3723,5.3725,5.3807,5.3822,5.3877,5.3897,5.3922,5.3943,5.4007,5.4044,5.4051,5.407,5.4112,5.4151,5.4152,5.4168,5.4193,5.419,5.4082,5.4067,5.4052,5.4035,5.4197,5.4197,5.4302,5.4303,5.4303]}]]